Regional Weather Roundup
Issued by NWS Northern Indiana

Home | Current Version | Previous Version | Graphics & Text | Print | Product List | Glossary On
Versions: 1 2 3 4 5 6 7 8 9 10 11 12 13 14 15 16 17 18 19 20 21 22 23 24 25 26 27 28 29 30 31 32 33 34 35 36 37 38 39 40 41 42 43 44 45 46 47 48 49 50
000
ASUS43 KIWX 071310
RWRIWX

KIWX WEATHER ROUNDUP
NATIONAL WEATHER SERVICE NORTHERN INDIANA
900 AM EDT TUE JUL 07 2015

NOTE: "FAIR" INDICATES FEW OR NO CLOUDS BELOW 12,000 FEET WITH NO
SIGNIFICANT WEATHER AND/OR OBSTRUCTIONS TO VISIBILITY.

* THESE STATIONS ARE NOT UNDER NWS QUALITY CONTROL. THEY ALSO MAY NOT
  REPORT WEATHER SUCH AS PRECIPITATION OR FOG.

INZ001>027-071400-
NORTHERN INDIANA

CITY           SKY/WX    TMP DP  RH WIND       PRES   REMARKS
GARY*          LGT RAIN N/A N/A N/A N14G32    29.97R
VALPARAISO     LGT RAIN  60  58  92 N9G17     29.93R FOG
MICHIGAN CITY* LGT RAIN  59  59 100 N7        29.93R
LAPORTE*       LGT RAIN  63  63 100 NW10      29.92R
KNOX*          CLOUDY    63  63 100 NW13      29.89R
SOUTH BEND     LGT RAIN  65  64  97 NW8       29.90R FOG
ELKHART*       LGT RAIN  72  72 100 S5        29.88S
GOSHEN         LGT RAIN  72  71  97 SW5       29.88S FOG
MONTICELLO*    LGT RAIN  71  71 100 CALM      29.89S
LOGANSPORT*    LGT RAIN  70  68  94 CALM      29.91S
ROCHESTER*     RAIN      73  73 100 CALM      29.90S
WARSAW*        RAIN      70  70 100 CALM      29.89F
ANGOLA*        CLOUDY    70  63  78 W8        29.90S
FORT WAYNE     CLOUDY    77  72  84 SW9       29.90F
HUNTINGTON*    CLOUDY    76  72  88 SW8       29.89F
PERU/GRISSOM   LGT RAIN  71  69  94 NW7       29.90R FOG
MARION*        CLOUDY    75  72  90 SW8       29.92S

$$
INZ028>050-071400-
CENTRAL INDIANA

CITY           SKY/WX    TMP DP  RH WIND       PRES   REMARKS
LAFAYETTE      CLOUDY    71  70  96 S3        29.89S
KOKOMO*        CLOUDY    77  72  83 SW12      29.90S
MUNCIE*        CLOUDY    77  71  82 SW13G21   29.92F
INDIANAPOLIS   CLOUDY    77  71  82 S12       29.92S

$$
MIZ043>046-050>051-056>058-064>065-071>073-077>080-071400-
SOUTHWEST LOWER MICHIGAN

CITY           SKY/WX    TMP DP  RH WIND       PRES   REMARKS
BATTLE CREEK   LGT RAIN  73  70  90 SW9       29.87R
BENTON HARBOR  RAIN      61  59  93 VRB6      29.90R VSB 1
COLDWATER*     RAIN      70  70  98 SW7       29.89R
HILLSDALE*     RAIN      71  71 100 SW8       29.89S
HOLLAND        CLOUDY    61  58  90 N9        29.90R FOG
GRAND RAPIDS   LGT RAIN  64  63  96 NW14      29.86R FOG
KALAMAZOO      HVY RAIN  72  69  90 SW8       29.86S FOG
STURGIS*       RAIN      72  70  94 SW6       29.88S
THREE RIVERS*  RAIN      72  70  94 SW6       29.87F

$$
OHZ001>008-015>018-024>025-071400-
NORTHWEST OHIO

CITY           SKY/WX    TMP DP  RH WIND       PRES   REMARKS
DEFIANCE       CLOUDY    77  72  84 SW10      29.89S
FINDLAY        MOSUNNY   79  72  79 SW16      29.91F
TOLEDO EXPRESS CLOUDY    76  71  85 SW12      29.89S
TOLEDO METCALF CLOUDY    78  70  76 SW16G23   29.90S
LIMA           PTSUNNY   76  71  85 S12G22    29.94S

$$
AND FOR LAKE MICHIGAN COASTAL AND OPEN LAKE BUOY OBSERVATIONS

STATION/POSITION TEMP    WIND        PRES    VSBY  WAVE
                 AIR SEA DIR/SP/G                  HT/PER
                 (F)     (DEG/KT/KT) (MB)    (MI)  (FT/S)
CALUMET HARBOR    59     340/ 18/ 24   N/A
MICHIGAN CITY     60     350/ 19/ 21   N/A
BURNS HARBOR      61     360/ 17/ 21 1013.5R
SAINT JOSEPH      61     340/ 14/ 18 1013.2R
4 MI NW BRIDGMAN  61 65   30/ 17/ 19   N/A           4/ 2
MICHIGAN CITY     60 66  360/ 17/ 23   N/A           5/ 5
MICHIGAN CITY CG  62 66   20/ 13       N/A    3 1/2  3

$$
&&



USA.gov is the U.S. government's official web portal to all federal, state and local government web resources and services.